Location: Macksville High School
(37.9611°N, 99.9654°W)
Time: 18:36:07
(UTC+00:00)

COSMOS 2428 - Pass Details

Date: 17 January 2021
Orbit: 848 x 855 km, 70.9° (Epoch: 26 February)

Event Time Altitude Azimuth Distance (km) Brightness Sun altitude
Rises 13:01:03 0° 232° (SW) 3,404 5.5 -10.5°
Reaches altitude 10° 13:03:50 10° 243° (WSW) 2,471 4.7 -9.9°
Maximum altitude 13:08:40 28° 302° (WNW) 1,534 3.5 -9.0°
Drops below altitude 10° 13:13:32 10° 1° (N) 2,480 5.0 -8.1°
Sets 13:16:20 0° 13° (NNE) 3,418 5.8 -7.6°
